Starlink 11436

operational
NORAD ID: 62887 Int'l Des: 2025-024 Owner: SPXS Country: US Constellation: starlink
LEOCIRCULAR

Über Starlink 11436

Beschreibung wird geladen...

Live-Position

3D-Globus wird geladen...

Nächste Überflüge

Höhenverlauf

Altitude vs Time

uPlot chart will show altitude changes over time

Zweizeiliger Elementsatz

1 62887U 25024J 25305.10009844 .00208272 00000-0 15808-2 0 9990
2 62887 42.9959 236.4731 0001054 190.6435 169.4411 15.70922394 43246
Epoch: 1. Nov. 2025 • Age: 38 hours

Aktueller Status

Höhe 356.8 km
Geschwindigkeit 7.70 km/s
Subsatellitenpunkt -11.44°S, 74.83°W
Startdatum 4. Feb. 2025
Alter 0.7 years
Typ internet

Technische Details

Klassifizierung Payload
Masse 960.00 kg
Trockenmasse 910.00 kg
Gesamtmasse 960.00 kg
Länge 0.30 m
Durchmesser 4.10 m
Spannweite 29.00 m
Form Box + pan
Hersteller SPXS
Bus-Typ Starlink V2MD
Phasenstatus In Orbit
Besitzer/Staat SPXS/US

Große Konstellationen

Loading constellations...